Location: Apeadero de Los Molinos-Guadarrama
(40.7091°N, 4.0689°W)
Time: 13:36:48
(UTC+00:00)

Gblst 52 Del rocket - Pass Details

Date: 14 May 2021
Orbit: 805 x 1365 km, 51.5° (Epoch: 18 June)

Event Time Altitude Azimuth Distance (km) Brightness Sun altitude
Rises 23:22:49 0° 305° (NW) 3,938 8.3 -29.3°
Reaches altitude 10° 23:25:42 10° 307° (NW) 2,890 7.5 -29.4°
Maximum altitude 23:32:32 78° 33° (NNE) 977 4.4 -29.7°
Enters shadow 23:32:50 76° 66° (ENE) 979 4.4 -29.7°
